Thermopolis, WY

5:44 PM MDT on September 26, 2016 (GMT -0600)
Thermopolis

Weather History for KTBX - September, 2013

Change the Weather History Date:

Wednesday, September 11, 2013

  Actual Average (KWRL) Record (KWRL)
Temperature  
Mean Temperature 58 °F 61 °F  
Max Temperature 62 °F 77 °F 98 °F (1971)
Min Temperature 53 °F 45 °F 32 °F (2014)
Degree Days  
Heating Degree Days 8 5  
Month to date heating degree days 41  
Since 1 July heating degree days 77  
Cooling Degree Days 0 1  
Month to date cooling degree days 21  
Year to date cooling degree days 527  
Growing Degree Days 8 (Base 50)    
Moisture  
Dew Point 44 °F    
Average Humidity 63    
Maximum Humidity 88    
Minimum Humidity 45    
Precipitation  
Precipitation 0.00 in 0.02 in 0.44 in (2014)
Month to date precipitation 0.25  
Year to date precipitation 5.70  
Sea Level Pressure  
Sea Level Pressure 30.47 in    
Wind  
Wind Speed 9 mph (SE)    
Max Wind Speed 16 mph    
Max Gust Speed 21 mph    
Visibility 10 miles    
Events Rain    
T = Trace of Precipitation, MM = Missing Value Source: NWS Daily Summary

Daily Weather History Graph

Daily Weather History Graph

Search for Another Location

Airport or City:

Trip Planner

Search our weather history database for the weather conditions in past years. The results will help you decide how hot, cold, wet, or windy it might be!

Date:

Astronomy

Sep. 11, 2013 Rise Set
Actual Time 6:48 AM MDT 7:29 PM MDT
Civil Twilight 6:19 AM MDT 7:58 PM MDT
Nautical Twilight 5:45 AM MDT 8:32 PM MDT
Astronomical Twilight 5:09 AM MDT 9:08 PM MDT
Moon 1:31 PM MDT (9/11) 11:17 PM MDT (9/11)
Length of Visible Light 13h 39m
Length of Day
12h 41m
Waxing Crescent, 39% of the Moon is Illuminated
Sep 11
Waxing Crescent
Sep 12
First Quarter
Sep 19
Full
Sep 26
Last Quarter
Oct 4
New

Hourly Weather History & Observations

Time (MDT) Temp. Dew Point Humidity Pressure Visibility Wind Dir Wind Speed Gust Speed Precip Events Conditions
12:15 AM 55.4 °F 42.8 °F 63% 30.43 in 10.0 mi SE 11.5 mph - N/A   Clear
12:35 AM 55.4 °F 42.8 °F 63% 30.42 in 10.0 mi SE 8.1 mph - N/A   Clear
12:55 AM 55.4 °F 42.8 °F 63% 30.42 in 10.0 mi SE 8.1 mph - N/A   Clear
1:15 AM 55.4 °F 42.8 °F 63% 30.43 in 10.0 mi SE 8.1 mph - N/A   Clear
1:35 AM 55.4 °F 42.8 °F 63% 30.43 in 10.0 mi SE 9.2 mph - N/A   Clear
1:55 AM 55.4 °F 42.8 °F 63% 30.43 in 10.0 mi SE 8.1 mph - N/A   Clear
2:15 AM 55.4 °F 41.0 °F 58% 30.43 in 10.0 mi SE 8.1 mph - N/A   Clear
2:35 AM 55.4 °F 41.0 °F 58% 30.43 in 10.0 mi SE 6.9 mph - N/A   Clear
2:55 AM 55.4 °F 41.0 °F 58% 30.43 in 10.0 mi SE 5.8 mph - N/A   Clear
3:15 AM 55.4 °F 41.0 °F 58% 30.43 in 10.0 mi SE 5.8 mph - N/A   Clear
3:35 AM 55.4 °F 41.0 °F 58% 30.43 in 10.0 mi SE 4.6 mph - N/A   Clear
3:55 AM 55.4 °F 41.0 °F 58% 30.43 in 10.0 mi SE 4.6 mph - N/A   Clear
4:15 AM 55.4 °F 39.2 °F 54% 30.43 in 10.0 mi SSE 3.5 mph - N/A   Clear
4:35 AM 57.2 °F 39.2 °F 51% 30.43 in 10.0 mi Calm Calm - N/A   Clear
4:55 AM 57.2 °F 37.4 °F 48% 30.44 in 10.0 mi SE 4.6 mph - N/A   Clear
5:15 AM 57.2 °F 37.4 °F 48% 30.44 in 10.0 mi Calm Calm - N/A   Clear
5:35 AM 57.2 °F 39.2 °F 51% 30.44 in 10.0 mi SSW 3.5 mph - N/A   Clear
5:55 AM 55.4 °F 41.0 °F 58% 30.44 in 10.0 mi Calm Calm - N/A   Clear
6:15 AM 57.2 °F 39.2 °F 51% 30.44 in 10.0 mi North 5.8 mph - N/A   Clear
6:35 AM 55.4 °F 39.2 °F 54% 30.44 in 10.0 mi North 8.1 mph - N/A   Clear
6:55 AM 55.4 °F 41.0 °F 58% 30.44 in 10.0 mi North 12.7 mph - N/A   Clear
7:15 AM 55.4 °F 41.0 °F 58% 30.44 in 10.0 mi NNW 13.8 mph - N/A   Clear
7:35 AM 55.4 °F 41.0 °F 58% 30.44 in 10.0 mi NNW 13.8 mph - N/A   Clear
7:55 AM 55.4 °F 41.0 °F 58% 30.44 in 10.0 mi North 13.8 mph - N/A   Clear
8:15 AM 55.4 °F 41.0 °F 58% 30.45 in 10.0 mi NNW 12.7 mph - N/A   Clear
8:35 AM 55.4 °F 41.0 °F 58% 30.46 in 10.0 mi NNW 12.7 mph - N/A   Clear
8:55 AM 57.2 °F 42.8 °F 59% 30.46 in 10.0 mi NNW 12.7 mph - N/A   Clear
9:15 AM 57.2 °F 41.0 °F 55% 30.46 in 10.0 mi NNW 13.8 mph - N/A   Scattered Clouds
9:35 AM 59.0 °F 41.0 °F 51% 30.46 in 10.0 mi NNW 13.8 mph - N/A   Mostly Cloudy
9:55 AM 59.0 °F 41.0 °F 51% 30.47 in 10.0 mi NNW 12.7 mph - N/A   Overcast
10:15 AM 59.0 °F 41.0 °F 51% 30.48 in 10.0 mi NNW 15.0 mph - N/A   Overcast
10:35 AM 59.0 °F 41.0 °F 51% 30.48 in 10.0 mi NNW 13.8 mph - N/A   Overcast
10:55 AM 59.0 °F 41.0 °F 51% 30.48 in 10.0 mi NNW 13.8 mph - N/A   Overcast
11:15 AM 59.0 °F 42.8 °F 55% 30.49 in 10.0 mi NW 10.4 mph - N/A   Mostly Cloudy
11:35 AM 59.0 °F 42.8 °F 55% 30.49 in 10.0 mi NW 9.2 mph - N/A   Mostly Cloudy
11:55 AM 59.0 °F 42.8 °F 55% 30.49 in 10.0 mi NW 11.5 mph - N/A   Overcast
12:15 PM 59.0 °F 42.8 °F 55% 30.49 in 10.0 mi NW 10.4 mph 16.1 mph N/A   Overcast
12:35 PM 60.8 °F 42.8 °F 52% 30.49 in 10.0 mi NW 15.0 mph - N/A   Overcast
12:55 PM 62.6 °F 41.0 °F 45% 30.49 in 10.0 mi NW 13.8 mph - N/A   Overcast
1:15 PM 60.8 °F 41.0 °F 48% 30.50 in 10.0 mi NNW 16.1 mph 20.7 mph N/A   Overcast
1:35 PM 60.8 °F 41.0 °F 48% 30.50 in 10.0 mi NW 6.9 mph - N/A   Overcast
1:55 PM 59.0 °F 46.4 °F 63% 30.50 in 10.0 mi SE 9.2 mph - N/A   Overcast
2:15 PM 60.8 °F 46.4 °F 59% 30.50 in 10.0 mi SSE 10.4 mph - N/A   Mostly Cloudy
2:35 PM 59.0 °F 46.4 °F 63% 30.49 in 10.0 mi SSE 6.9 mph - N/A   Mostly Cloudy
2:55 PM 57.2 °F 46.4 °F 67% 30.50 in 10.0 mi SSE 9.2 mph - N/A   Overcast
3:15 PM 59.0 °F 44.6 °F 59% 30.49 in 10.0 mi SE 11.5 mph 18.4 mph N/A   Overcast
3:35 PM 59.0 °F 46.4 °F 63% 30.49 in 10.0 mi SSE 11.5 mph - N/A   Overcast
3:55 PM 55.4 °F 48.2 °F 77% 30.49 in 10.0 mi SE 11.5 mph - N/A Rain Rain
4:15 PM 53.6 °F 50.0 °F 88% 30.49 in 10.0 mi South 10.4 mph - N/A Rain Light Rain
4:35 PM 55.4 °F 50.0 °F 82% 30.49 in 10.0 mi South 5.8 mph - N/A   Overcast
4:55 PM 53.6 °F 50.0 °F 88% 30.49 in 10.0 mi SSE 8.1 mph - N/A   Overcast
5:15 PM 55.4 °F 50.0 °F 82% 30.49 in 10.0 mi SSE 5.8 mph - N/A   Overcast
5:35 PM 55.4 °F 46.4 °F 72% 30.49 in 10.0 mi SE 8.1 mph - N/A   Overcast
5:55 PM 55.4 °F 50.0 °F 82% 30.49 in 10.0 mi South 11.5 mph - N/A   Overcast
6:15 PM 55.4 °F 46.4 °F 72% 30.49 in 10.0 mi SSE 8.1 mph - N/A   Scattered Clouds
6:35 PM 55.4 °F 48.2 °F 77% 30.49 in 10.0 mi SE 9.2 mph - N/A   Mostly Cloudy
6:55 PM 55.4 °F 48.2 °F 77% 30.49 in 10.0 mi SSE 6.9 mph - N/A   Overcast
7:15 PM 55.4 °F 46.4 °F 72% 30.49 in 10.0 mi SSE 8.1 mph - N/A   Overcast
7:35 PM 55.4 °F 46.4 °F 72% 30.50 in 10.0 mi SSE 9.2 mph - N/A   Overcast
7:55 PM 55.4 °F 44.6 °F 67% 30.50 in 10.0 mi SSE 6.9 mph - N/A   Overcast
8:15 PM 55.4 °F 44.6 °F 67% 30.51 in 10.0 mi SE 6.9 mph - N/A   Overcast
8:35 PM 55.4 °F 44.6 °F 67% 30.51 in 10.0 mi SE 5.8 mph - N/A   Overcast
8:55 PM 55.4 °F 44.6 °F 67% 30.52 in 10.0 mi SE 5.8 mph - N/A   Overcast
9:15 PM 55.4 °F 46.4 °F 72% 30.52 in 10.0 mi SE 5.8 mph - N/A   Overcast
9:35 PM 55.4 °F 46.4 °F 72% 30.52 in 10.0 mi SE 5.8 mph - N/A   Overcast
9:55 PM 55.4 °F 46.4 °F 72% 30.52 in 10.0 mi SE 6.9 mph - N/A   Scattered Clouds
10:15 PM 55.4 °F 46.4 °F 72% 30.52 in 10.0 mi SE 8.1 mph - N/A   Scattered Clouds
10:35 PM 55.4 °F 46.4 °F 72% 30.53 in 10.0 mi SE 10.4 mph - N/A   Clear
10:55 PM 55.4 °F 46.4 °F 72% 30.52 in 10.0 mi ESE 11.5 mph - N/A   Clear
11:15 PM 55.4 °F 46.4 °F 72% 30.52 in 10.0 mi ESE 11.5 mph - N/A   Clear
11:35 PM 53.6 °F 46.4 °F 77% 30.52 in 10.0 mi ESE 11.5 mph - N/A   Clear
11:55 PM 53.6 °F 46.4 °F 77% 30.52 in 10.0 mi ESE 9.2 mph - N/A   Clear